DW7259 Weather Reports


Display with metric or nautical units.
time (UTC)temp
F
wind
direction
speed
MPH
gust
MPH
rain 1hr
in
rain 24hr
in
rain mn
in
humidity
%
barometer
mb
20260902161540 53 198 1.0 4.0 0.00 0.00 0.00 58 1007.4
20260902160047 53 198 0.0 0.0 0.00 0.00 0.00 58 1007.4
20260902154537 53 198 0.0 1.0 0.00 0.00 0.00 57 1007.3
20260902153034 52 198 0.0 4.0 0.00 0.00 0.00 56 1007.5
20260902151531 52 198 1.0 6.0 0.00 0.00 0.00 56 1007.2
20260902150030 52 198 1.0 3.0 0.00 0.00 0.00 57 1007.1
20260902144529 51 198 0.0 0.0 0.00 0.00 0.00 57 1007.2
20260902143027 51 198 0.0 2.0 0.00 0.00 0.00 57 1007.0
20260902141522 50 198 0.0 0.0 0.00 0.00 0.00 58 1006.8
20260902140021 50 198 0.0 0.0 0.00 0.00 0.00 57 1006.5
20260902134518 50 198 0.0 2.0 0.00 0.00 0.00 56 1006.4
20260902133017 50 198 0.0 0.0 0.00 0.00 0.00 56 1006.2
20260902131515 50 198 0.0 0.0 0.00 0.00 0.00 56 1006.2
20260902130013 50 198 0.0 0.0 0.00 0.00 0.00 58 1006.1
20260902124511 50 198 0.0 0.0 0.00 0.00 0.00 54 1006.0
20260902123009 50 198 0.0 0.0 0.00 0.00 0.00 52 1005.8
20260902121506 51 198 0.0 0.0 0.00 0.00 0.00 52 1005.7
20260902120005 51 198 0.0 0.0 0.00 0.00 0.00 50 1005.9
20260902114503 52 198 0.0 3.0 0.00 0.00 0.00 48 1005.8
20260902113002 52 198 0.0 1.0 0.00 0.00 0.00 51 1005.7
20260902111501 52 198 0.0 2.0 0.00 0.00 0.00 50 1005.6
20260902110000 51 198 0.0 5.0 0.00 0.00 0.00 48 1005.7
20260902104600 52 198 0.0 2.0 0.00 0.00 0.00 49 1005.7
20260902103111 52 198 0.0 3.0 0.00 0.00 0.00 48 1005.6
20260902101559 52 198 0.0 3.0 0.00 0.00 0.00 47 1005.7
20260902100123 52 198 0.0 4.0 0.00 0.00 0.00 48 1005.6
20260902094615 52 198 0.0 1.0 0.00 0.00 0.00 46 1005.5
20260902093111 52 198 0.0 3.0 0.00 0.00 0.00 45 1005.7
20260902091553 52 198 0.0 4.0 0.00 0.00 0.00 45 1005.8
20260902090051 53 199 0.0 6.0 0.00 0.00 0.00 42 1005.7
20260902084550 53 200 2.0 6.0 0.00 0.00 0.00 40 1005.4
20260902083050 53 136 2.0 7.0 0.00 0.00 0.00 38 1005.4
20260902081550 53 134 0.0 2.0 0.00 0.00 0.00 37 1005.3
20260902080049 53 134 0.0 5.0 0.00 0.00 0.00 40 1005.6
20260902074544 53 138 0.0 1.0 0.00 0.00 0.00 43 1005.5
20260902073048 54 138 0.0 2.0 0.00 0.00 0.00 41 1005.1
20260902071545 54 138 0.0 3.0 0.00 0.00 0.00 42 1004.9
20260902070035 54 138 0.0 4.0 0.00 0.00 0.00 44 1004.5
20260902064540 54 138 0.0 2.0 0.00 0.00 0.00 44 1004.6
20260902063033 54 138 0.0 9.0 0.00 0.00 0.00 48 1004.4
20260902061532 54 124 0.0 8.0 0.00 0.00 0.00 48 1004.2
20260902060031 55 146 1.0 9.0 0.00 0.00 0.00 46 1004.2
20260902054538 55 135 1.0 10.0 0.00 0.00 0.00 48 1004.2
20260902053032 55 168 0.0 7.0 0.00 0.00 0.00 48 1004.1
20260902051528 56 154 1.0 6.0 0.00 0.00 0.00 46 1004.1
20260902050038 57 165 0.0 10.0 0.00 0.00 0.00 42 1004.0
20260902044526 58 150 1.0 6.0 0.00 0.00 0.00 38 1003.7
20260902043025 58 139 0.0 5.0 0.00 0.00 0.00 37 1003.7
20260902041525 59 132 1.0 6.0 0.00 0.00 0.00 36 1003.5
20260902040023 59 127 1.0 11.0 0.00 0.00 0.00 34 1003.3
20260902034520 60 120 1.0 7.0 0.00 0.00 0.00 35 1002.8
20260902033017 60 146 2.0 14.0 0.00 0.00 0.00 33 1002.4
20260902031520 61 150 2.0 8.0 0.00 0.00 0.00 32 1002.2
20260902030016 62 130 0.0 6.0 0.00 0.00 0.00 31 1002.1
20260902024516 63 128 1.0 9.0 0.00 0.00 0.00 29 1002.0
20260902023017 64 159 0.0 4.0 0.00 0.00 0.00 28 1002.0
20260902021517 65 162 0.0 7.0 0.00 0.00 0.00 27 1002.1
20260902020014 66 35 0.0 7.0 0.00 0.00 0.00 27 1002.0
20260902014517 67 142 0.0 9.0 0.00 0.00 0.00 24 1001.8
20260902013013 68 67 0.0 13.0 0.00 0.00 0.00 22 1001.8
20260902011512 69 46 1.0 11.0 0.00 0.00 0.00 22 1001.8
20260902010023 69 25 0.0 10.0 0.00 0.00 0.00 24 1001.9
20260902004514 70 13 1.0 8.0 0.00 0.00 0.00 24 1001.9
20260902003011 70 31 3.0 9.0 0.00 0.00 0.00 21 1001.9
20260902001510 71 36 2.0 16.0 0.00 0.00 0.00 21 1001.7
20260902000011 72 40 5.0 20.0 0.00 0.00 0.00 18 1001.4
20260901234508 74 24 9.0 16.0 0.00 0.00 0.00 17 1001.4
20260901233011 75 40 3.0 11.0 0.00 0.00 0.00 19 1001.5
20260901231507 75 341 5.0 10.0 0.00 0.00 0.00 19 1001.2
20260901230009 75 58 5.0 13.0 0.00 0.00 0.00 17 1001.2
20260901224506 75 30 0.0 5.0 0.00 0.00 0.00 19 1001.1
20260901223006 76 28 1.0 9.0 0.00 0.00 0.00 18 1001.0
20260901221505 77 53 2.0 8.0 0.00 0.00 0.00 20 1001.0
20260901220010 77 43 3.0 13.0 0.00 0.00 0.00 18 1001.0
20260901214508 78 186 2.0 11.0 0.00 0.00 0.00 17 1000.9
20260901213002 77 44 0.0 12.0 0.00 0.00 0.00 22 1000.8
20260901211502 77 14 4.0 10.0 0.00 0.00 0.00 19 1000.9
20260901210059 76 355 5.0 13.0 0.00 0.00 0.00 18 1001.1
20260901204558 76 344 6.0 17.0 0.00 0.00 0.00 19 1001.2
20260901203118 75 355 8.0 17.0 0.00 0.00 0.00 19 1001.4
20260901201601 75 40 8.0 16.0 0.00 0.00 0.00 18 1001.4
20260901200055 76 34 7.0 13.0 0.00 0.00 0.00 18 1001.3
20260901194603 76 336 7.0 17.0 0.00 0.00 0.00 18 1001.3
20260901193056 76 329 5.0 16.0 0.00 0.00 0.00 20 1001.4
20260901191610 77 349 5.0 14.0 0.00 0.00 0.00 19 1001.6
20260901190050 76 250 2.0 8.0 0.00 0.00 0.00 20 1001.9
20260901184548 76 232 3.0 7.0 0.00 0.00 0.00 22 1001.9
20260901183051 75 232 0.0 5.0 0.00 0.00 0.00 29 1001.9
20260901181543 74 232 0.0 4.0 0.00 0.00 0.00 28 1002.0
20260901180038 72 232 3.0 7.0 0.00 0.00 0.00 29 1002.1
20260901174535 72 252 3.0 6.0 0.00 0.00 0.00 31 1002.0
20260901173032 71 252 2.0 9.0 0.00 0.00 0.00 32 1002.0
20260901171528 70 248 3.0 6.0 0.00 0.00 0.00 32 1002.0
20260901170025 69 248 2.0 8.0 0.00 0.00 0.00 33 1002.0
20260901164521 67 236 2.0 7.0 0.00 0.00 0.00 34 1002.2
20260901163018 66 237 0.0 5.0 0.00 0.00 0.00 37 1002.1